Regional Weather Roundup
Issued by NWS Charleston, WV

Home | Current Version | Previous Version | Text Only | Print | Product List | Glossary Off
Versions: 1 2 3 4 5 6 7 8 9 10 11 12 13 14 15 16 17 18 19 20 21 22 23 24 25 26 27 28 29 30 31 32 33 34 35 36 37 38 39 40 41 42 43 44 45 46 47 48 49 50

000
ASUS41 KRLX 281910
RWRRLX
West Virginia Regional Weather Roundup
National Weather Service Charleston WV
200 PM EST SAT FEB 28 2015

Note: "fair" indicates few or no clouds below 12,000 feet with no
significant weather and/or obstructions to visibility.

WVZ003-282000-
Northern Panhandle of West Virginia

CITY           SKY/WX    TMP DP  RH WIND       PRES   REMARKS
WHEELING       PTSUNNY   24   0  35 N6        30.65F
$$

WVZ009-282000-
Northwest West Virginia

CITY           SKY/WX    TMP DP  RH WIND       PRES   REMARKS
PARKERSBURG    PTSUNNY   30   2  30 NE6       30.68F
$$

WVZ006-282000-
Western West Virginia

CITY           SKY/WX    TMP DP  RH WIND       PRES   REMARKS
HUNTINGTON     SUNNY     33   9  36 VRB3      30.61F
$$

WVZ015-282000-
West Central West Virginia

CITY           SKY/WX    TMP DP  RH WIND       PRES   REMARKS
CHARLESTON     MOSUNNY   36  12  37 VRB3      30.61F
$$

WVZ022-031-282000-
North Central West Virginia

CITY           SKY/WX    TMP DP  RH WIND       PRES   REMARKS
CLARKSBURG     PTSUNNY   28   0  29 CALM      30.63F
MORGANTOWN     SUNNY     30   1  29 VRB5      30.64F
$$

WVZ025-035-042-045-282000-
Southern West Virginia

CITY           SKY/WX    TMP DP  RH WIND       PRES   REMARKS
BECKLEY        MOSUNNY   31  12  45 SE7       30.52F
LOGAN            N/A     37  16  41 CALM      30.52F
BLUEFIELD      MOSUNNY   37  14  38 VRB7      30.52F
LEWISBURG      PTSUNNY   32  11  41 NW3       30.57F
$$

WVZ047-282000-
Northern Mountains of West Virginia

CITY           SKY/WX    TMP DP  RH WIND       PRES   REMARKS
ELKINS         SUNNY     32   6  33 W3        30.56F
$$

WVZ052-282000-
Eastern Panhandle of West Virginia

CITY           SKY/WX    TMP DP  RH WIND       PRES   REMARKS
MARTINSBURG    SUNNY     29   2  31 E5        30.75F
PETERSBURG     MOSUNNY   32   5  32 N3        30.67F
$$


USA.gov is the U.S. government's official web portal to all federal, state and local government web resources and services.